Precipitable_Water
1.50 1.46 1.33 1.19 1.04 0.90 0.88 0.88 0.85 0.84 0.81 0.81 0.84 0.83 0.84 0.87 0.86 0.85 0.85 0.87 0.94 1.01 1.08 1.12 1.10 1.07 0.97 0.74 0.68 0.95 0.95 0.92 0.92 0.84 0.73 0.69 0.64 0.63 0.54 0.56 0.59 0.55 0.56 0.59 0.60 0.61 0.60
1.57 1.50 1.45 1.34 1.17 1.00 0.91 0.90 0.90 0.91 0.90 0.89 0.88 0.88 0.87 0.87 0.88 0.90 0.94 1.03 1.09 1.12 1.14 1.14 1.14 1.14 0.93 0.65 0.98 1.04 0.99 0.97 0.94 0.87 0.82 0.81 0.73 0.74 0.64 0.63 0.60 0.61 0.60 0.60 0.61 0.59 0.60
1.56 1.58 1.51 1.46 1.33 1.15 1.01 0.94 0.96 0.96 0.95 0.94 0.92 0.94 0.95 0.96 0.97 1.03 1.10 1.15 1.19 1.18 1.17 1.17 1.17 1.11 0.89 0.79 1.03 1.05 1.02 0.93 0.93 0.86 0.75 0.83 0.83 0.70 0.69 0.59 0.68 0.64 0.50 0.55 0.52 0.50 0.47
1.38 1.53 1.56 1.54 1.47 1.31 1.18 1.04 1.00 1.00 1.00 0.97 0.96 1.01 1.05 1.03 1.12 1.22 1.26 1.23 1.22 1.21 1.21 1.21 1.21 1.08 0.78 1.03 1.05 0.93 0.90 0.83 0.85 0.83 0.78 0.82 0.79 0.70 0.67 0.69 0.60 0.51 0.49 0.36 0.45 0.47 0.45
1.32 1.38 1.40 1.54 1.55 1.45 1.32 1.20 1.11 1.04 1.05 1.04 1.07 1.10 1.13 1.17 1.29 1.31 1.28 1.25 1.22 1.20 1.19 1.21 1.08 0.98 0.74 0.96 0.78 0.94 0.97 0.83 0.88 0.89 0.85 0.86 0.77 0.59 0.59 0.48 0.42 0.44 0.29 0.31 0.34 0.43 0.40
1.25 1.29 1.33 1.38 1.52 1.51 1.46 1.35 1.24 1.17 1.12 1.11 1.15 1.18 1.22 1.34 1.36 1.32 1.27 1.23 1.19 1.16 1.14 1.13 1.06 0.79 0.79 0.69 0.76 0.85 0.90 0.88 0.77 0.74 0.68 0.66 0.62 0.49 0.46 0.37 0.20 0.23 0.25 0.29 0.29 0.38 0.38
1.17 1.21 1.27 1.34 1.51 1.51 1.50 1.46 1.36 1.28 1.22 1.20 1.23 1.27 1.39 1.41 1.36 1.32 1.24 1.13 0.97 0.89 0.96 0.79 0.72 0.66 0.66 0.80 0.85 0.72 0.81 0.72 0.71 0.62 0.43 0.53 0.37 0.28 0.28 0.31 0.30 0.30 0.28 0.28 0.35 0.40 0.36
1.12 1.19 1.23 1.25 1.32 1.44 1.49 1.49 1.44 1.39 1.33 1.30 1.31 1.40 1.46 1.40 1.36 1.31 1.21 0.99 0.94 0.90 0.70 0.79 0.77 0.76 0.76 0.77 0.56 0.63 0.73 0.54 0.52 0.39 0.48 0.44 0.32 0.39 0.40 0.42 0.39 0.36 0.31 0.30 0.35 0.39 0.40
1.05 1.16 1.19 1.22 1.26 1.33 1.47 1.51 1.49 1.45 1.40 1.39 1.40 1.48 1.46 1.40 1.36 1.23 1.12 1.03 1.09 0.99 0.68 0.64 0.71 0.67 0.64 0.65 0.53 0.53 0.53 0.46 0.41 0.39 0.41 0.35 0.36 0.47 0.46 0.46 0.41 0.39 0.34 0.31 0.30 0.39 0.42
0.89 1.08 1.14 1.18 1.22 1.30 1.35 1.48 1.51 1.50 1.46 1.44 1.44 1.47 1.43 1.37 1.17 1.15 1.02 1.10 1.06 0.89 0.56 0.50 0.57 0.58 0.62 0.58 0.44 0.59 0.59 0.45 0.40 0.33 0.41 0.39 0.46 0.40 0.38 0.37 0.39 0.29 0.41 0.39 0.38 0.36 0.25
0.81 0.98 1.05 1.13 1.19 1.26 1.31 1.38 1.48 1.50 1.46 1.45 1.45 1.43 1.36 1.31 1.12 1.00 1.06 1.07 0.95 0.76 0.39 0.57 0.51 0.72 0.68 0.50 0.54 0.59 0.69 0.55 0.39 0.36 0.36 0.31 0.36 0.37 0.37 0.36 0.42 0.35 0.43 0.39 0.38 0.36 0.33
0.76 0.84 0.95 1.08 1.17 1.21 1.28 1.34 1.44 1.47 1.48 1.47 1.43 1.41 1.32 1.19 1.08 1.09 1.10 0.97 0.78 0.55 0.37 0.47 0.51 0.49 0.50 0.51 0.50 0.60 0.59 0.59 0.54 0.42 0.41 0.35 0.42 0.38 0.35 0.44 0.45 0.46 0.40 0.38 0.36 0.33 0.23
0.71 0.74 0.98 1.03 1.09 1.18 1.22 1.32 1.42 1.46 1.46 1.44 1.37 1.36 1.23 1.19 0.97 1.12 1.04 0.76 0.53 0.41 0.54 0.44 0.45 0.49 0.44 0.41 0.43 0.49 0.47 0.46 0.39 0.33 0.32 0.38 0.37 0.42 0.45 0.37 0.41 0.39 0.33 0.23 0.20 0.22 0.20
0.70 0.77 0.94 0.98 0.97 1.04 1.16 1.31 1.43 1.42 1.38 1.34 1.34 1.25 1.15 1.12 1.11 1.08 0.89 0.62 0.43 0.49 0.49 0.53 0.49 0.46 0.39 0.42 0.42 0.42 0.41 0.39 0.46 0.42 0.34 0.29 0.28 0.42 0.51 0.44 0.38 0.37 0.34 0.25 0.18 0.17 0.19
0.74 0.83 0.89 1.06 1.05 1.06 1.17 1.39 1.38 1.32 1.30 1.26 1.24 1.08 1.03 1.06 1.10 1.02 0.74 0.49 0.48 0.54 0.55 0.50 0.50 0.43 0.42 0.43 0.43 0.43 0.44 0.42 0.45 0.47 0.34 0.32 0.32 0.47 0.44 0.44 0.43 0.37 0.30 0.41 0.32 0.32 0.27
0.77 0.83 0.89 1.03 1.13 1.16 1.19 1.24 1.28 1.24 1.21 1.18 1.01 0.92 0.89 1.06 1.07 0.88 0.63 0.50 0.54 0.59 0.57 0.51 0.44 0.47 0.40 0.42 0.40 0.39 0.42 0.49 0.45 0.50 0.51 0.40 0.28 0.40 0.39 0.40 0.41 0.36 0.37 0.27 0.33 0.24 0.22
0.76 0.84 0.93 0.94 1.06 1.10 1.15 1.13 1.18 1.15 1.11 1.07 0.90 0.72 0.86 1.00 0.95 0.67 0.48 0.50 0.55 0.58 0.58 0.51 0.49 0.47 0.47 0.44 0.43 0.40 0.42 0.49 0.50 0.46 0.44 0.37 0.31 0.28 0.30 0.27 0.25 0.25 0.25 0.27 0.28 0.26 0.21
0.73 0.82 0.94 0.96 0.97 0.97 1.03 1.04 1.05 1.05 1.01 0.92 0.77 0.57 0.86 0.92 0.57 0.56 0.48 0.53 0.58 0.55 0.58 0.55 0.54 0.49 0.46 0.44 0.40 0.37 0.35 0.36 0.48 0.42 0.33 0.37 0.30 0.22 0.23 0.31 0.33 0.31 0.28 0.28 0.21 0.19 0.21
0.72 0.77 0.88 0.91 0.94 0.94 0.96 0.98 0.98 0.96 0.95 0.83 0.64 0.62 0.82 0.78 0.43 0.46 0.52 0.51 0.54 0.51 0.51 0.50 0.48 0.48 0.47 0.39 0.34 0.37 0.38 0.45 0.44 0.38 0.34 0.35 0.27 0.18 0.17 0.26 0.33 0.28 0.28 0.25 0.25 0.23 0.16
0.69 0.73 0.78 0.85 0.89 0.90 0.90 0.92 0.94 0.93 0.90 0.80 0.62 0.47 0.56 0.60 0.57 0.49 0.46 0.45 0.45 0.54 0.50 0.50 0.48 0.46 0.41 0.37 0.38 0.34 0.35 0.39 0.43 0.40 0.39 0.34 0.26 0.21 0.15 0.17 0.22 0.19 0.20 0.23 0.24 0.17 0.14
0.64 0.69 0.73 0.78 0.86 0.88 0.88 0.88 0.88 0.88 0.85 0.74 0.60 0.49 0.54 0.42 0.46 0.47 0.46 0.45 0.41 0.40 0.47 0.46 0.41 0.39 0.35 0.30 0.30 0.28 0.30 0.32 0.35 0.36 0.36 0.31 0.20 0.22 0.22 0.24 0.23 0.22 0.19 0.18 0.16 0.16 0.14
0.59 0.67 0.69 0.73 0.77 0.81 0.82 0.83 0.84 0.83 0.81 0.66 0.52 0.49 0.53 0.48 0.47 0.44 0.43 0.40 0.39 0.40 0.39 0.37 0.34 0.35 0.33 0.26 0.25 0.23 0.26 0.27 0.24 0.28 0.28 0.33 0.22 0.24 0.19 0.23 0.22 0.17 0.15 0.13 0.12 0.11 0.12
0.51 0.59 0.67 0.69 0.73 0.75 0.78 0.79 0.79 0.79 0.77 0.61 0.62 0.60 0.50 0.46 0.43 0.40 0.39 0.39 0.38 0.38 0.40 0.38 0.34 0.31 0.29 0.29 0.31 0.32 0.32 0.30 0.28 0.25 0.25 0.26 0.24 0.22 0.15 0.18 0.16 0.11 0.11 0.11 0.11 0.13 0.15
0.48 0.49 0.60 0.66 0.67 0.71 0.72 0.73 0.76 0.75 0.73 0.65 0.61 0.55 0.46 0.37 0.39 0.39 0.40 0.39 0.37 0.35 0.31 0.35 0.35 0.29 0.32 0.39 0.38 0.35 0.33 0.32 0.32 0.32 0.33 0.26 0.25 0.24 0.16 0.14 0.07 0.09 0.14 0.18 0.18 0.17 0.23
0.46 0.46 0.47 0.58 0.65 0.65 0.70 0.71 0.72 0.73 0.73 0.63 0.62 0.53 0.45 0.37 0.40 0.38 0.38 0.36 0.36 0.37 0.33 0.33 0.36 0.37 0.41 0.34 0.24 0.20 0.19 0.19 0.21 0.28 0.31 0.30 0.23 0.15 0.10 0.10 0.10 0.10 0.12 0.14 0.14 0.10 0.20
0.43 0.46 0.46 0.47 0.53 0.63 0.63 0.68 0.69 0.70 0.69 0.65 0.61 0.59 0.47 0.38 0.36 0.41 0.37 0.36 0.32 0.31 0.32 0.34 0.41 0.44 0.37 0.28 0.21 0.15 0.13 0.13 0.12 0.14 0.21 0.22 0.21 0.15 0.13 0.09 0.06 0.08 0.14 0.19 0.20 0.09 0.21
0.44 0.45 0.47 0.47 0.49 0.51 0.59 0.60 0.66 0.68 0.67 0.64 0.60 0.62 0.50 0.39 0.43 0.42 0.35 0.33 0.35 0.31 0.27 0.31 0.34 0.35 0.35 0.23 0.18 0.15 0.14 0.16 0.10 0.10 0.12 0.14 0.16 0.12 0.12 0.11 0.11 0.12 0.14 0.20 0.09 0.07 0.14
0.49 0.45 0.45 0.48 0.48 0.50 0.52 0.57 0.59 0.65 0.65 0.62 0.56 0.63 0.52 0.42 0.44 0.45 0.43 0.35 0.34 0.32 0.26 0.31 0.32 0.32 0.29 0.23 0.20 0.18 0.15 0.16 0.13 0.13 0.11 0.10 0.11 0.11 0.13 0.11 0.08 0.12 0.16 0.11 0.10 0.12 0.15
0.51 0.51 0.49 0.47 0.49 0.50 0.50 0.53 0.56 0.60 0.62 0.62 0.49 0.60 0.55 0.43 0.41 0.50 0.48 0.46 0.41 0.39 0.33 0.34 0.29 0.29 0.29 0.24 0.22 0.20 0.16 0.16 0.13 0.09 0.15 0.10 0.11 0.11 0.13 0.09 0.14 0.17 0.14 0.13 0.14 0.14 0.15
Wind_Speed
63 62 62 62 59 57 55 53 51 49 48 46 44 42 40 39 37 35 34 33 31 31 30 30 29 30 30 28 28 29 29 30 30 30 30 30 30 28 28 26 24 25 26 25 26 27 27
65 64 63 63 62 60 58 56 54 52 50 48 46 44 42 40 39 37 35 34 33 33 33 33 33 34 33 34 31 30 29 29 28 27 26 26 26 24 25 24 23 23 26 27 27 29 30
60 65 66 65 65 64 61 59 57 55 52 50 49 47 44 42 40 38 37 36 35 34 34 35 36 36 37 37 34 33 33 32 31 29 28 25 23 22 21 22 23 24 27 27 26 24 23
63 64 64 68 68 66 64 62 59 57 57 54 51 48 46 44 41 39 38 36 36 36 36 36 36 36 38 34 34 34 33 32 30 28 26 24 22 23 23 24 24 26 26 23 19 18 21
65 63 61 64 67 68 66 64 62 59 57 54 53 50 47 45 43 40 38 37 37 37 36 34 32 29 30 28 27 23 21 20 18 18 20 19 20 21 20 21 22 20 25 23 24 23 22
66 66 64 64 67 67 66 66 63 61 58 56 54 51 48 45 43 41 39 37 35 34 33 30 28 24 25 22 21 19 19 18 17 16 16 18 19 19 19 20 24 22 23 23 24 22 23
70 67 64 62 68 68 68 67 65 63 61 58 56 53 50 47 43 41 38 35 33 32 33 30 25 22 20 20 18 18 19 19 20 21 21 21 21 22 23 25 26 26 26 28 28 30 33
67 70 67 65 64 68 70 67 66 64 61 59 57 55 51 49 46 43 40 37 35 30 29 33 33 32 30 26 26 26 24 24 23 23 21 21 26 26 26 26 27 28 30 30 30 27 26
63 65 67 68 64 65 71 70 68 65 62 60 57 54 52 49 45 43 41 38 34 32 31 33 34 33 32 31 32 30 28 26 26 25 25 28 24 20 22 24 26 28 29 31 33 32 32
63 63 67 68 67 64 64 70 70 67 64 61 59 55 53 49 45 44 42 38 34 30 29 32 30 31 31 30 31 30 30 28 28 31 27 30 29 32 34 32 30 33 29 31 30 28 28
57 63 65 68 70 67 66 66 69 68 65 62 60 56 55 53 45 45 41 37 32 28 25 26 27 27 26 27 25 25 26 26 28 27 25 26 25 23 25 27 25 27 25 28 30 31 32
54 59 64 69 72 70 67 66 66 66 66 65 59 59 58 51 47 45 41 37 31 25 31 28 26 26 24 24 23 22 22 22 22 23 25 25 24 25 25 24 25 25 27 29 31 30 32
49 56 61 69 72 73 71 70 67 65 64 63 61 60 58 52 49 47 43 38 29 31 29 30 28 26 25 24 23 24 23 22 23 22 23 23 25 24 25 27 27 27 27 27 27 25 32
41 47 56 67 73 71 73 73 70 65 61 58 56 57 54 52 50 49 45 38 34 37 33 28 26 25 26 25 24 24 23 23 22 24 23 24 24 23 24 23 25 27 26 26 29 35 41
30 35 40 57 65 66 66 68 67 64 61 59 54 52 50 49 51 50 46 41 37 34 33 31 28 28 27 27 25 25 25 24 24 25 25 24 26 25 24 27 28 26 26 29 32 40 38
22 25 28 35 55 56 58 62 63 61 59 55 50 47 46 48 49 46 41 37 35 33 31 31 29 30 28 27 25 25 25 24 24 25 25 26 29 28 27 26 24 24 28 27 27 26 26
13 15 23 28 38 49 53 55 58 58 57 54 47 42 45 48 44 41 40 36 33 31 30 29 29 28 28 26 25 24 24 24 23 24 24 25 27 29 31 28 30 31 29 29 30 30 28
9 7 22 32 33 40 49 51 52 54 52 47 43 38 45 46 39 37 35 34 31 30 27 26 26 24 25 23 23 24 24 23 23 24 25 25 26 30 30 30 31 30 28 27 28 29 32
3 10 19 26 32 37 41 45 49 52 51 44 37 35 40 43 35 34 32 31 30 28 25 24 23 24 23 22 22 23 23 23 23 23 23 23 25 27 30 26 25 25 27 29 27 28 35
2 6 14 21 34 34 37 42 46 48 45 38 34 32 33 36 33 33 31 29 27 26 26 24 23 23 22 21 21 21 22 22 23 24 24 24 26 27 30 33 29 33 34 32 28 30 31
4 7 13 18 27 35 34 39 42 44 40 34 31 30 33 35 33 33 28 27 26 24 24 24 23 24 22 21 22 23 24 23 24 25 25 26 30 31 34 34 33 36 38 37 34 36 31
7 10 12 16 23 27 32 36 39 39 37 31 29 30 29 29 30 29 26 26 27 23 23 23 22 23 23 22 22 23 23 24 25 25 26 27 29 28 30 30 31 35 35 32 34 34 34
9 11 14 16 21 23 24 33 35 36 35 29 28 28 26 26 29 27 27 25 25 22 21 22 23 21 22 24 23 24 25 26 27 26 26 25 24 24 27 22 26 29 27 27 28 30 31
13 14 17 19 20 22 26 25 30 32 31 28 26 26 24 23 25 26 26 24 25 23 21 21 21 21 21 19 19 21 22 23 23 24 23 22 21 20 22 21 22 21 19 23 25 29 28
17 18 20 22 23 24 25 27 28 28 29 27 27 26 24 22 23 23 23 22 21 21 20 20 20 21 19 19 19 19 20 20 21 24 24 21 19 18 20 19 24 25 20 20 24 31 25
20 22 24 25 26 27 27 27 27 28 28 28 26 25 23 23 24 24 23 23 22 22 21 21 19 19 19 19 18 18 17 16 15 14 16 19 21 19 17 19 19 18 19 21 22 29 20
20 24 26 28 28 29 30 29 28 27 28 28 26 26 24 23 23 24 23 23 21 20 20 20 20 19 19 17 17 17 17 16 15 14 13 14 16 21 22 22 24 24 21 18 20 24 24
21 23 26 29 30 31 31 32 31 28 28 27 25 24 24 22 22 23 23 22 21 21 20 19 18 19 18 17 17 17 16 17 15 15 14 16 16 18 19 20 24 21 17 19 23 26 27
21 24 26 28 28 31 32 33 33 33 29 27 24 24 22 22 22 22 20 19 21 21 19 20 18 19 18 16 17 15 16 15 15 16 17 19 20 18 19 21 22 22 22 26 28 29 27
Wind_Direction
243 242 241 240 239 237 237 237 237 237 238 238 239 239 240 242 244 246 248 250 253 256 259 263 267 271 271 269 267 269 271 270 270 272 274 276 275 274 274 276 280 275 280 281 282 287 285
241 241 240 239 238 237 237 237 236 237 237 238 238 239 240 242 243 245 247 250 253 256 260 264 269 270 270 267 268 269 271 272 270 270 271 272 273 272 273 273 274 281 283 285 286 285 284
244 240 240 239 237 237 236 236 237 237 237 238 239 239 240 241 243 245 247 249 253 258 261 266 270 271 269 266 266 268 268 267 269 269 271 267 269 269 272 275 279 282 286 287 284 284 283
245 241 241 239 236 235 235 235 236 236 237 237 237 238 239 240 242 244 246 251 255 257 264 267 270 272 269 266 267 267 265 265 265 264 262 264 267 267 267 275 281 283 283 283 287 286 285
241 240 242 238 235 234 234 234 235 236 235 235 236 237 238 239 240 242 245 250 255 259 264 265 268 270 270 264 262 260 254 255 256 260 258 264 262 263 267 271 279 278 279 280 286 287 287
241 241 241 241 233 234 233 233 233 233 234 234 234 235 236 237 238 240 244 249 254 257 257 260 263 265 262 255 254 252 252 254 257 254 262 262 266 266 270 266 272 276 276 280 284 289 288
240 239 239 238 234 233 233 233 232 232 233 233 233 234 234 235 236 238 241 248 250 254 252 249 251 253 254 255 253 250 251 255 259 261 261 261 264 264 263 263 273 281 282 284 284 285 286
241 238 237 237 237 235 231 230 230 230 230 231 231 232 232 233 235 236 240 244 246 251 253 250 251 255 256 256 258 255 256 257 256 258 257 262 267 271 270 268 271 275 280 284 287 285 283
239 237 236 235 236 234 230 229 228 228 229 228 229 229 230 232 232 235 238 240 243 249 256 255 251 253 255 251 254 256 252 257 257 257 255 258 266 278 269 270 271 272 275 280 280 286 284
239 238 237 235 233 232 230 227 226 227 228 228 228 228 228 226 231 232 236 236 241 246 256 255 250 254 251 251 258 254 253 255 257 257 258 267 270 268 269 272 273 276 272 273 278 284 284
240 238 237 234 231 231 230 229 225 225 227 226 227 226 223 225 231 230 234 231 232 243 253 249 245 245 247 247 251 255 252 254 253 255 257 262 270 272 268 269 267 275 277 278 279 279 284
244 241 239 234 230 229 228 226 224 224 225 224 225 223 219 227 229 229 223 220 229 243 246 243 243 243 243 246 250 249 253 253 256 257 262 263 267 274 272 273 272 277 279 281 279 276 274
248 244 240 233 229 227 228 227 224 223 223 221 223 220 220 223 227 218 216 222 238 240 245 240 242 240 242 246 250 248 247 253 258 259 263 265 267 272 276 274 280 278 281 283 278 271 276
256 246 242 233 227 227 227 224 222 220 218 216 216 214 218 225 217 215 219 227 238 238 237 241 238 236 242 245 251 250 248 253 265 264 265 268 267 273 279 276 278 282 278 277 280 281 283
262 252 247 227 221 221 219 217 215 213 212 213 209 211 217 217 215 217 217 230 236 237 234 230 236 240 244 245 246 248 253 255 261 267 264 272 269 272 281 279 279 283 278 286 282 277 279
265 253 233 217 210 210 208 208 207 205 206 205 211 211 216 215 212 214 223 231 235 238 236 234 237 242 239 241 244 247 249 256 258 264 267 269 275 273 274 278 282 280 285 287 282 284 283
268 252 210 196 194 196 195 197 198 199 201 204 208 216 213 209 212 217 223 229 230 233 233 234 238 240 240 241 243 250 253 258 257 261 267 269 271 271 280 276 278 282 279 279 280 279 281
256 232 190 187 179 183 187 189 192 195 196 200 209 216 207 204 212 218 222 221 226 228 234 236 236 237 237 237 241 245 247 253 251 261 267 270 273 276 279 282 280 276 280 281 281 281 281
256 194 180 182 179 180 183 188 193 193 196 201 207 207 205 206 216 216 219 222 225 223 227 231 231 232 239 239 244 247 250 258 254 261 263 264 273 280 281 277 282 279 279 283 282 281 278
169 167 178 180 188 186 188 188 184 185 191 197 198 201 202 207 215 211 210 216 221 225 227 232 233 233 236 243 250 249 252 256 257 264 265 265 269 271 274 279 280 280 281 281 279 282 286
175 152 164 166 173 177 178 180 183 186 190 195 204 205 205 208 212 207 212 215 212 223 228 229 237 235 236 244 249 253 256 262 262 264 267 269 272 271 274 277 279 282 282 285 279 278 279
197 175 165 170 172 178 184 184 185 191 193 200 204 202 206 203 202 202 211 216 213 222 225 230 234 234 239 245 250 255 258 262 266 269 268 273 276 276 278 277 279 281 282 280 281 282 280
213 196 181 174 178 182 178 186 189 192 196 204 207 204 205 205 207 209 215 215 218 220 232 231 233 241 246 251 257 262 266 270 272 271 268 269 269 274 277 280 286 283 277 279 283 286 287
221 209 200 191 185 184 188 185 189 193 199 202 202 203 205 208 208 213 211 218 214 222 228 234 238 245 252 253 259 265 270 272 273 269 268 268 264 266 276 282 276 284 290 288 289 292 293
228 219 210 206 201 196 193 195 196 196 201 201 205 207 210 210 210 208 209 215 217 224 233 235 242 249 243 255 262 266 273 277 272 263 259 259 261 269 273 268 281 287 286 290 297 296 297
232 224 218 213 210 207 204 202 202 204 205 206 207 210 212 210 217 211 212 216 224 230 234 240 244 240 250 255 260 262 266 269 270 267 265 252 253 257 265 272 275 288 289 291 295 298 295
232 225 221 217 214 212 210 208 207 207 206 208 212 214 215 217 218 212 218 220 224 230 234 236 238 242 246 252 258 261 263 266 261 255 254 255 258 255 262 271 281 283 283 291 293 303 307
234 225 220 218 217 215 213 211 209 205 205 209 212 214 215 218 216 219 222 225 228 231 232 231 233 243 242 247 253 258 259 258 259 259 257 255 259 266 266 271 279 277 279 281 292 301 303
234 225 221 216 213 213 212 210 209 207 207 207 209 210 212 215 218 220 224 228 231 229 228 230 239 234 238 247 255 257 256 253 252 263 265 270 266 269 259 268 279 278 279 287 291 294 296